FW7576 Weather Reports


time (UTC)temp
F
wind
direction
speed
knots
gust
knots
rain 1hr
in
rain 24hr
in
rain mn
in
humidity
%
barometer
mb
20260906140044 72 153 2.6 5.2 0.00 0.00 0.00 74 1021.0
20260906134542 71 70 2.6 6.1 0.00 0.00 0.00 76 1021.0
20260906133042 71 57 2.6 7.0 0.00 0.00 0.00 77 1020.9
20260906131547 71 83 0.0 5.2 0.00 0.00 0.00 81 1020.7
20260906130050 69 63 0.0 2.6 0.00 0.00 0.00 84 1020.4
20260906124542 68 0 0.0 0.0 0.00 0.00 0.00 87 1020.2
20260906123044 66 0 0.0 0.0 0.00 0.00 0.00 86 1020.2
20260906121545 64 0 0.0 0.0 0.00 0.00 0.00 86 1020.1
20260906120043 63 0 0.0 0.0 0.00 0.00 0.00 87 1019.8
20260906114556 63 0 0.0 0.0 0.00 0.00 0.00 87 1019.7
20260906113043 64 0 0.0 0.0 0.00 0.00 0.00 87 1019.5
20260906111549 64 0 0.0 0.0 0.00 0.00 0.00 88 1019.3
20260906110041 65 0 0.0 0.0 0.00 0.00 0.00 88 1019.2
20260906104547 65 0 0.0 0.0 0.00 0.00 0.00 87 1019.2
20260906103049 65 0 0.0 0.0 0.00 0.00 0.00 87 1019.2
20260906101542 65 0 0.0 0.0 0.00 0.00 0.00 88 1019.1
20260906100057 65 0 0.0 0.0 0.00 0.00 0.00 88 1019.1
20260906094551 65 0 0.0 0.0 0.00 0.00 0.00 88 1019.0
20260906093043 65 0 0.0 0.0 0.00 0.00 0.00 88 1018.9
20260906091543 65 0 0.0 0.0 0.00 0.00 0.00 88 1018.6
20260906090044 65 0 0.0 0.0 0.00 0.00 0.00 87 1018.9
20260906084547 65 0 0.0 0.0 0.00 0.00 0.00 87 1018.9
20260906083043 65 0 0.0 0.0 0.00 0.00 0.00 87 1018.8
20260906081543 65 0 0.0 0.0 0.00 0.00 0.00 87 1018.7
20260906080203 65 0 0.0 0.0 0.00 0.00 0.00 87 1018.8
20260906074551 65 0 0.0 0.0 0.00 0.00 0.00 87 1018.6
20260906073044 65 0 0.0 0.0 0.00 0.00 0.00 87 1018.5
20260906071543 65 0 0.0 0.0 0.00 0.00 0.00 87 1018.6
20260906070047 65 0 0.0 0.0 0.00 0.00 0.00 87 1018.6
20260906064543 65 0 0.0 0.0 0.00 0.00 0.00 87 1018.6
20260906063046 65 0 0.0 0.9 0.00 0.00 0.00 86 1018.8
20260906061542 65 0 0.0 0.0 0.00 0.00 0.00 86 1018.6
20260906060047 65 0 0.0 0.0 0.00 0.00 0.00 86 1018.6
20260906054600 65 0 0.0 0.0 0.00 0.00 0.00 87 1018.6
20260906053048 65 0 0.0 0.0 0.00 0.00 0.00 87 1018.6
20260906051544 65 0 0.0 0.9 0.00 0.00 0.00 87 1018.4
20260906050045 65 0 0.0 0.9 0.00 0.00 0.00 88 1018.3
20260906044549 66 0 0.0 0.9 0.00 0.00 0.00 88 1018.3
20260906043045 66 32 0.0 2.6 0.00 0.00 0.00 88 1018.1
20260906041542 66 0 0.0 2.6 0.00 0.00 0.00 88 1017.9
20260906034552 67 61 0.9 4.3 0.00 0.00 0.00 88 1018.0
20260906033045 67 50 0.9 6.1 0.00 0.00 0.00 88 1018.0
20260906031605 67 51 2.6 5.2 0.00 0.00 0.00 88 1018.0
20260906030050 68 62 1.7 4.3 0.00 0.00 0.00 87 1018.0
20260906024557 68 53 1.7 6.1 0.00 0.00 0.00 87 1017.9
20260906023045 68 48 2.6 7.0 0.00 0.00 0.00 86 1017.7
20260906021550 68 49 1.7 4.3 0.00 0.00 0.00 86 1017.7
20260906020047 68 16 2.6 7.0 0.00 0.00 0.00 86 1017.7
20260906014543 69 31 1.7 4.3 0.00 0.00 0.00 85 1017.9
20260906013041 69 34 0.9 4.3 0.00 0.00 0.00 85 1017.7
20260906011542 69 23 1.7 4.3 0.00 0.00 0.00 85 1017.7
20260906010052 69 36 1.7 5.2 0.00 0.00 0.00 84 1017.7
20260906004544 70 48 2.6 5.2 0.00 0.00 0.00 84 1017.5
20260906003045 70 37 3.5 7.0 0.00 0.00 0.00 85 1017.5
20260906001551 70 20 2.6 7.0 0.00 0.00 0.00 85 1017.5
20260906000055 70 21 2.6 7.0 0.00 0.00 0.00 86 1017.6
20260905234550 70 37 2.6 7.8 0.00 0.00 0.00 86 1017.6
20260905233042 70 339 2.6 7.0 0.00 0.00 0.00 87 1017.6
20260905231542 70 49 4.3 9.6 0.00 0.00 0.00 88 1017.6
20260905230047 70 18 4.3 8.7 0.00 0.00 0.00 87 1017.6
20260905224543 70 57 2.6 10.4 0.00 0.00 0.00 87 1017.7
20260905223042 71 28 4.3 8.7 0.00 0.00 0.00 86 1017.4
20260905221543 71 37 2.6 11.3 0.00 0.00 0.00 86 1017.2
20260905220045 71 39 3.5 8.7 0.00 0.00 0.00 86 1017.2
20260905214543 71 40 4.3 12.2 0.00 0.00 0.00 85 1017.0
20260905213053 71 53 4.3 9.6 0.00 0.00 0.00 85 1016.7
20260905211600 72 27 6.1 10.4 0.00 0.00 0.00 85 1016.9
20260905210053 72 86 5.2 9.6 0.00 0.00 0.00 84 1016.7
20260905204550 73 351 5.2 11.3 0.00 0.00 0.00 83 1016.7
20260905203042 74 47 6.1 11.3 0.00 0.00 0.00 82 1016.6
20260905201550 75 49 5.2 13.0 0.00 0.00 0.00 82 1016.7
20260905200042 75 29 5.2 11.3 0.00 0.00 0.00 82 1016.6
20260905194546 75 27 5.2 8.7 0.00 0.00 0.00 83 1016.7
20260905193041 74 30 4.3 9.6 0.00 0.00 0.00 84 1016.6
20260905191541 75 59 3.5 8.7 0.00 0.00 0.00 84 1016.7
20260905190041 76 74 4.3 12.2 0.00 0.00 0.00 82 1016.6
20260905184548 77 80 5.2 11.3 0.00 0.00 0.00 82 1016.7
20260905183045 77 65 5.2 11.3 0.00 0.00 0.00 81 1016.5
20260905181544 77 6 3.5 8.7 0.00 0.00 0.00 82 1016.6
20260905180047 77 48 3.5 7.0 0.00 0.00 0.00 82 1016.5
20260905174552 77 58 2.6 7.0 0.00 0.00 0.00 82 1016.4
20260905173057 77 41 3.5 7.8 0.00 0.00 0.00 81 1016.5
20260905171550 76 34 1.7 4.3 0.00 0.00 0.00 82 1016.6
20260905170048 76 60 1.7 6.1 0.00 0.00 0.00 81 1016.6
20260905164542 76 68 2.6 5.2 0.00 0.01 0.00 81 1016.8
20260905163050 76 62 2.6 5.2 0.00 0.01 0.00 82 1016.6
20260905161547 76 63 3.5 7.8 0.00 0.01 0.00 82 1016.8
20260905160045 74 5 2.6 7.0 0.00 0.01 0.00 85 1016.8
20260905154540 74 34 3.5 8.7 0.00 0.16 0.00 86 1016.7
20260905153047 74 37 2.6 7.8 0.00 0.16 0.00 86 1016.6
20260905151549 74 54 3.5 8.7 0.00 0.16 0.00 85 1016.5
20260905150043 74 0 0.0 6.1 0.00 0.16 0.00 86 1016.4
20260905144543 73 60 3.5 8.7 0.00 0.26 0.00 86 1016.3
20260905143048 72 39 2.6 7.0 0.00 0.26 0.00 86 1016.0
20260905141546 71 41 2.6 7.8 0.00 0.26 0.00 85 1015.9